Tracking 20369 objects as of 18-Feb-2020
HD Live streaming from Space Station
objects crossing your sky now

COSMOS 1197

Track COSMOS 1197 now!
10-day predictions
COSMOS 1197 is classified as:


NORAD ID: 11880
Int'l Code: 1980-058F
Perigee: 1,477.6 km
Apogee: 1,499.5 km
Inclination: 74.0 °
Period: 115.6 minutes
Semi major axis: 7859 km
RCS: 0.6693 m2 (medium)
Launch date: July 9, 1980
Source: Commonwealth of Independent States (former USSR) (CIS)
Launch site: PLESETSK MISSILE AND SPACE COMPLEX (PKMTR)
aabbcc
Your satellite tracking list
Your tracking list is empty




NASA's NSSDC Master Catalog

Two Line Element Set (TLE):
1 11880U 80058F   20048.81378926 -.00000024  00000-0 -55475-4 0  9995
2 11880  74.0179 293.8628 0013957 267.1537  92.7914 12.45972117801901
Source of the keplerian elements: AFSPC